Change the Weather History Date:

Saturday, May 18, 2013

  Actual Average Record
Temperature  
Mean Temperature 55 °F 55 °F  
Max Temperature 63 °F 68 °F 91 °F (2006)
Min Temperature 47 °F 42 °F 26 °F (1903)
Degree Days  
Heating Degree Days 10 11  
Month to date heating degree days 178 235  
Since 1 July heating degree days 6869 7289  
Cooling Degree Days 0 0  
Month to date cooling degree days 7 0  
Year to date cooling degree days 7 0  
Growing Degree Days 6 (Base 50)    
Moisture  
Dew Point 44 °F    
Average Humidity 70    
Maximum Humidity 93    
Minimum Humidity 46    
Precipitation  
Precipitation 0.05 in 0.06 in 1.10 in (1944)
Month to date precipitation 0.26 0.92  
Year to date precipitation 1.80 3.15  
Snow  
Snow 0.00 in 0.00 in 4.60 in (1903)
Month to date snowfall 0.0 0.7  
Since 1 July snowfall 39.7 37.9  
Snow Depth 0.00 in    
Sea Level Pressure  
Sea Level Pressure 29.97 in    
Wind  
Wind Speed 6 mph (WNW)    
Max Wind Speed 23 mph    
Max Gust Speed 29 mph    
Visibility 10 miles    
Events Rain    
T = Trace of Precipitation, MM = Missing Value Source: NWS Daily Summary

Daily Weather History Graph

Daily Weather History Graph

Search for Another Location

Airport or City:

Trip Planner

Search our weather history database for the weather conditions in past years. The results will help you decide how hot, cold, wet, or windy it might be!

Date:

Astronomy

May. 18, 2013 Rise Set
Actual Time 5:50 AM MDT 8:59 PM MDT
Civil Twilight 5:13 AM MDT 9:35 PM MDT
Nautical Twilight 4:27 AM MDT 10:22 PM MDT
Astronomical Twilight 3:29 AM MDT 11:21 PM MDT
Moon 1:42 PM MDT (5/18) 2:10 AM MDT (5/18)
Length of Visible Light 16h 21m
Length of Day
15h 09m
First Quarter, 56% of the Moon is Illuminated
May 18
First Quarter
May 24
Full
May 31
Last Quarter
Jun 8
New
Jun 16
First Quarter

Hourly Weather History & Observations

Time (MDT) Temp. Dew Point Humidity Pressure Visibility Wind Dir Wind Speed Gust Speed Precip Events Conditions
12:53 AM 48.0 °F 46.0 °F 93% 29.97 in 10.0 mi West 5.8 mph - N/A   Overcast
1:53 AM 48.0 °F 45.0 °F 89% 29.97 in 8.0 mi West 8.1 mph - N/A   Overcast
2:53 AM 48.0 °F 46.0 °F 93% 29.96 in 10.0 mi West 4.6 mph - 0.02 in   Overcast
3:53 AM 48.0 °F 45.0 °F 89% 29.96 in 10.0 mi West 4.6 mph - 0.00 in Rain Light Rain
4:28 AM 48.2 °F 44.6 °F 87% 29.94 in 10.0 mi Calm Calm - 0.00 in   Overcast
4:40 AM 48.2 °F 44.6 °F 87% 29.94 in 10.0 mi West 3.5 mph - 0.00 in   Overcast
4:49 AM 48.2 °F 44.6 °F 87% 29.93 in 10.0 mi Calm Calm - 0.00 in   Overcast
4:53 AM 48.0 °F 45.0 °F 89% 29.97 in 10.0 mi Calm Calm - 0.00 in   Overcast
5:39 AM 48.2 °F 44.6 °F 87% 29.94 in 10.0 mi West 4.6 mph - N/A   Overcast
5:53 AM 48.0 °F 45.0 °F 89% 29.97 in 10.0 mi West 3.5 mph - N/A   Overcast
6:32 AM 48.2 °F 44.6 °F 87% 29.95 in 10.0 mi West 4.6 mph - N/A   Overcast
6:53 AM 48.9 °F 45.0 °F 86% 29.99 in 10.0 mi West 3.5 mph - N/A   Overcast
7:53 AM 48.9 °F 44.1 °F 83% 30.00 in 10.0 mi WSW 4.6 mph - N/A   Overcast
8:29 AM 48.2 °F 44.6 °F 87% 29.96 in 9.0 mi WNW 3.5 mph - N/A   Overcast
8:49 AM 48.2 °F 44.6 °F 87% 29.96 in 10.0 mi WNW 3.5 mph - N/A   Overcast
8:53 AM 48.9 °F 45.0 °F 86% 30.00 in 10.0 mi WNW 4.6 mph - N/A   Overcast
9:19 AM 51.8 °F 46.4 °F 82% 29.97 in 10.0 mi Calm Calm - N/A   Overcast
9:53 AM 52.0 °F 45.0 °F 77% 30.00 in 10.0 mi Calm Calm - N/A   Overcast
10:53 AM 55.0 °F 44.1 °F 67% 29.97 in 10.0 mi NNW 5.8 mph - N/A   Overcast
11:53 AM 55.9 °F 43.0 °F 62% 29.96 in 10.0 mi NNW 5.8 mph - N/A   Overcast
12:53 PM 59.0 °F 42.8 °F 55% 29.93 in 10.0 mi Variable 3.5 mph - N/A   Mostly Cloudy
1:53 PM 60.1 °F 43.0 °F 53% 29.94 in 10.0 mi North 8.1 mph - N/A   Overcast
2:53 PM 57.0 °F 44.1 °F 62% 29.94 in 10.0 mi SW 6.9 mph - N/A   Overcast
3:53 PM 63.0 °F 43.0 °F 48% 29.92 in 10.0 mi Variable 4.6 mph - 0.00 in   Overcast
4:53 PM 60.1 °F 39.9 °F 47% 29.94 in 10.0 mi NW 18.4 mph 21.9 mph 0.00 in   Mostly Cloudy
5:53 PM 55.9 °F 39.9 °F 55% 29.97 in 10.0 mi WNW 12.7 mph - N/A   Overcast
6:53 PM 55.9 °F 43.0 °F 62% 29.98 in 10.0 mi WNW 8.1 mph - N/A   Overcast
7:53 PM 55.0 °F 43.0 °F 64% 30.00 in 10.0 mi WSW 5.8 mph - 0.00 in   Mostly Cloudy
8:53 PM 52.0 °F 44.1 °F 74% 30.02 in 10.0 mi NNW 4.6 mph - 0.01 in Rain Light Rain
9:53 PM 52.0 °F 45.0 °F 77% 30.04 in 10.0 mi SW 4.6 mph - 0.02 in Rain Light Rain
10:53 PM 51.8 °F 46.4 °F 82% 30.01 in 10.0 mi NW 6.9 mph - N/A   Overcast
11:53 PM 51.1 °F 44.1 °F 77% 30.03 in 10.0 mi West 5.8 mph - N/A   Overcast